Voltar ao catálogo

THOR ABLESTAR R/B

AtivoPO
NORAD 1508·ROCKET BODY·🇺🇸 United States

Lançado Aug 13, 1965 de Vandenberg Space Force Base

Loading…

Próximas Passagens (próximas 24 horas)

TLE

AtualizadoSource: Space-Track

Época: Sep 14, 2026, 15:10 UTC

1 01508U 65065B   26257.63262623  .00000017  00000-0  15443-4 0  9997
2 01508  90.1286 308.8626 0043906  80.4659  73.0373 13.36099106977351

Acompanhe THOR ABLESTAR R/B em tempo real com AllMySat

Download on the App Store